Time,TemperatureF,DewpointF,PressureIn,WindDirection,WindDirectionDegrees,WindSpeedMPH,WindSpeedGustMPH,Humidity,HourlyPrecipIn,Conditions,Clouds,dailyrainin,SoftwareType,DateUTC
2013-01-22 00:00:00,29.4,14.4,29.97,SSW,209,2.0,11.0,53,0.00,,,0.00,Weather View 32 v70,2013-01-22 05:00:00,
2013-01-22 00:01:00,29.3,14.3,29.96,SW,235,1.0,11.0,53,0.00,,,0.00,Weather View 32 v70,2013-01-22 05:01:00,
2013-01-22 00:04:00,29.3,14.7,29.97,East,81,2.0,11.0,54,0.00,,,0.00,Weather View 32 v70,2013-01-22 05:04:00,
2013-01-22 00:09:00,29.0,14.0,29.97,SW,218,4.0,11.0,53,0.00,,,0.00,Weather View 32 v70,2013-01-22 05:09:00,
2013-01-22 00:14:00,28.8,14.2,29.97,ESE,105,2.0,11.0,54,0.00,,,0.00,Weather View 32 v70,2013-01-22 05:14:00,
2013-01-22 00:19:00,28.6,14.1,29.97,South,178,2.0,11.0,54,0.00,,,0.00,Weather View 32 v70,2013-01-22 05:19:00,
2013-01-22 00:24:00,28.5,13.5,29.97,WNW,289,0.0,11.0,53,0.00,,,0.00,Weather View 32 v70,2013-01-22 05:24:00,
2013-01-22 00:29:00,28.4,13.4,29.97,NNE,33,4.0,9.0,53,0.00,,,0.00,Weather View 32 v70,2013-01-22 05:29:00,
2013-01-22 00:34:00,28.2,13.3,29.96,East,90,2.0,9.0,53,0.00,,,0.00,Weather View 32 v70,2013-01-22 05:34:00,
2013-01-22 00:39:00,28.1,13.2,29.97,ENE,72,3.0,9.0,53,0.00,,,0.00,Weather View 32 v70,2013-01-22 05:39:00,
2013-01-22 00:44:00,27.9,12.5,29.97,SSE,151,2.0,9.0,52,0.00,,,0.00,Weather View 32 v70,2013-01-22 05:44:00,
2013-01-22 00:49:00,27.8,13.3,29.96,SSW,213,2.0,9.0,54,0.00,,,0.00,Weather View 32 v70,2013-01-22 05:49:00,
2013-01-22 00:54:00,27.6,12.7,29.97,SSE,159,2.0,9.0,53,0.00,,,0.00,Weather View 32 v70,2013-01-22 05:54:00,
2013-01-22 00:59:00,27.6,12.7,29.96,SSE,158,3.0,10.0,53,0.00,,,0.00,Weather View 32 v70,2013-01-22 05:59:00,
2013-01-22 01:04:00,27.5,12.2,29.96,WSW,245,0.0,10.0,52,0.00,,,0.00,Weather View 32 v70,2013-01-22 06:04:00,
2013-01-22 01:09:00,27.4,12.5,29.96,NE,48,1.0,10.0,53,0.00,,,0.00,Weather View 32 v70,2013-01-22 06:09:00,
2013-01-22 01:14:00,27.2,11.9,29.96,SSW,211,3.0,10.0,52,0.00,,,0.00,Weather View 32 v70,2013-01-22 06:14:00,
2013-01-22 01:19:00,27.1,12.2,29.96,ENE,74,0.0,10.0,53,0.00,,,0.00,Weather View 32 v70,2013-01-22 06:19:00,
2013-01-22 01:24:00,27.0,12.1,29.96,SSW,204,0.0,10.0,53,0.00,,,0.00,Weather View 32 v70,2013-01-22 06:24:00,
2013-01-22 01:29:00,26.9,12.9,29.96,ESE,116,2.0,10.0,55,0.00,,,0.00,Weather View 32 v70,2013-01-22 06:29:00,
2013-01-22 01:34:00,26.7,12.7,29.95,WSW,249,4.0,10.0,55,0.00,,,0.00,Weather View 32 v70,2013-01-22 06:34:00,
2013-01-22 01:39:00,26.7,12.3,29.96,SSW,194,3.0,10.0,54,0.00,,,0.00,Weather View 32 v70,2013-01-22 06:39:00,
2013-01-22 01:44:00,26.7,12.3,29.95,NNE,29,3.0,10.0,54,0.00,,,0.00,Weather View 32 v70,2013-01-22 06:44:00,
2013-01-22 01:49:00,26.6,12.2,29.96,SE,132,7.0,11.0,54,0.00,,,0.00,Weather View 32 v70,2013-01-22 06:49:00,
2013-01-22 01:54:00,26.7,12.3,29.96,SW,226,2.0,13.0,54,0.00,,,0.00,Weather View 32 v70,2013-01-22 06:54:00,
2013-01-22 01:59:00,26.6,12.6,29.96,SSW,210,8.0,13.0,55,0.00,,,0.00,Weather View 32 v70,2013-01-22 06:59:00,
2013-01-22 02:04:00,26.5,12.5,29.96,SW,228,2.0,14.0,55,0.00,,,0.00,Weather View 32 v70,2013-01-22 07:04:00,
2013-01-22 02:09:00,26.5,12.5,29.96,SSE,153,2.0,14.0,55,0.00,,,0.00,Weather View 32 v70,2013-01-22 07:09:00,
2013-01-22 02:14:00,26.5,12.1,29.97,SW,233,3.0,14.0,54,0.00,,,0.00,Weather View 32 v70,2013-01-22 07:14:00,
2013-01-22 02:19:00,26.4,12.0,29.96,NE,36,6.0,14.0,54,0.00,,,0.00,Weather View 32 v70,2013-01-22 07:19:00,
2013-01-22 02:24:00,26.4,12.0,29.96,NW,308,2.0,14.0,54,0.00,,,0.00,Weather View 32 v70,2013-01-22 07:24:00,
2013-01-22 02:29:00,26.1,11.7,29.95,NW,315,2.0,14.0,54,0.00,,,0.00,Weather View 32 v70,2013-01-22 07:29:00,
2013-01-22 02:34:00,26.0,11.2,29.96,ENE,75,3.0,14.0,53,0.00,,,0.00,Weather View 32 v70,2013-01-22 07:34:00,
2013-01-22 02:39:00,25.8,11.0,29.96,SW,231,4.0,14.0,53,0.00,,,0.00,Weather View 32 v70,2013-01-22 07:39:00,
2013-01-22 02:44:00,25.7,10.9,29.96,NNE,25,4.0,14.0,53,0.00,,,0.00,Weather View 32 v70,2013-01-22 07:44:00,
2013-01-22 02:49:00,25.7,11.3,29.96,North,6,0.0,14.0,54,0.00,,,0.00,Weather View 32 v70,2013-01-22 07:49:00,
2013-01-22 02:54:00,25.5,11.2,29.96,WSW,242,2.0,14.0,54,0.00,,,0.00,Weather View 32 v70,2013-01-22 07:54:00,
2013-01-22 02:59:00,25.4,10.6,29.96,NE,34,6.0,14.0,53,0.00,,,0.00,Weather View 32 v70,2013-01-22 07:59:00,
2013-01-22 03:04:00,25.4,11.1,29.96,SSW,203,2.0,13.0,54,0.00,,,0.00,Weather View 32 v70,2013-01-22 08:04:00,
2013-01-22 03:10:00,25.3,11.0,29.96,SW,234,3.0,13.0,54,0.00,,,0.00,Weather View 32 v70,2013-01-22 08:10:00,
2013-01-22 03:15:00,25.2,11.3,29.96,ESE,113,1.0,11.0,55,0.00,,,0.00,Weather View 32 v70,2013-01-22 08:15:00,
2013-01-22 03:20:00,25.1,11.2,29.96,West,263,0.0,11.0,55,0.00,,,0.00,Weather View 32 v70,2013-01-22 08:20:00,
2013-01-22 03:25:00,25.0,11.1,29.96,ESE,108,1.0,11.0,55,0.00,,,0.00,Weather View 32 v70,2013-01-22 08:25:00,
2013-01-22 03:30:00,24.8,10.5,29.96,West,262,2.0,11.0,54,0.00,,,0.00,Weather View 32 v70,2013-01-22 08:30:00,
2013-01-22 03:35:00,24.6,10.3,29.96,SW,229,5.0,11.0,54,0.00,,,0.00,Weather View 32 v70,2013-01-22 08:35:00,
2013-01-22 03:40:00,24.5,10.2,29.96,SW,232,1.0,11.0,54,0.00,,,0.00,Weather View 32 v70,2013-01-22 08:40:00,
2013-01-22 03:45:00,24.3,10.0,29.96,NE,50,2.0,11.0,54,0.00,,,0.00,Weather View 32 v70,2013-01-22 08:45:00,
2013-01-22 03:50:00,24.2,9.9,29.96,NE,42,0.0,11.0,54,0.00,,,0.00,Weather View 32 v70,2013-01-22 08:50:00,
2013-01-22 03:55:00,24.0,9.8,29.96,SW,232,5.0,11.0,54,0.00,,,0.00,Weather View 32 v70,2013-01-22 08:55:00,
2013-01-22 04:00:00,23.9,10.1,29.95,SE,132,8.0,11.0,55,0.00,,,0.00,Weather View 32 v70,2013-01-22 09:00:00,
2013-01-22 04:05:00,23.8,10.0,29.95,SW,215,1.0,11.0,55,0.00,,,0.00,Weather View 32 v70,2013-01-22 09:05:00,
2013-01-22 04:10:00,23.7,9.9,29.95,WNW,302,2.0,11.0,55,0.00,,,0.00,Weather View 32 v70,2013-01-22 09:10:00,
2013-01-22 04:15:00,23.6,9.8,29.95,NE,49,3.0,11.0,55,0.00,,,0.00,Weather View 32 v70,2013-01-22 09:15:00,
2013-01-22 04:20:00,23.5,10.1,29.95,SSW,210,2.0,11.0,56,0.00,,,0.00,Weather View 32 v70,2013-01-22 09:20:00,
2013-01-22 04:25:00,23.4,10.0,29.96,ENE,66,0.0,11.0,56,0.00,,,0.00,Weather View 32 v70,2013-01-22 09:25:00,
2013-01-22 04:30:00,23.2,9.8,29.96,South,190,4.0,11.0,56,0.00,,,0.00,Weather View 32 v70,2013-01-22 09:30:00,
2013-01-22 04:35:00,23.0,9.2,29.95,WNW,302,2.0,11.0,55,0.00,,,0.00,Weather View 32 v70,2013-01-22 09:35:00,
2013-01-22 04:40:00,23.0,9.6,29.96,SSW,205,0.0,11.0,56,0.00,,,0.00,Weather View 32 v70,2013-01-22 09:40:00,
2013-01-22 04:45:00,22.8,9.4,29.96,SW,215,4.0,11.0,56,0.00,,,0.00,Weather View 32 v70,2013-01-22 09:45:00,
2013-01-22 04:50:00,22.5,8.4,29.96,West,268,4.0,13.0,54,0.00,,,0.00,Weather View 32 v70,2013-01-22 09:50:00,
2013-01-22 04:55:00,22.6,8.9,29.96,NW,323,2.0,13.0,55,0.00,,,0.00,Weather View 32 v70,2013-01-22 09:55:00,
2013-01-22 05:00:00,22.5,8.8,29.96,NE,56,0.0,13.0,55,0.00,,,0.00,Weather View 32 v70,2013-01-22 10:00:00,
2013-01-22 05:05:00,22.3,7.8,29.96,West,261,3.0,13.0,53,0.00,,,0.00,Weather View 32 v70,2013-01-22 10:05:00,
2013-01-22 05:10:00,22.2,7.7,29.97,SSW,197,2.0,14.0,53,0.00,,,0.00,Weather View 32 v70,2013-01-22 10:10:00,
2013-01-22 05:15:00,22.2,7.7,29.97,East,100,1.0,14.0,53,0.00,,,0.00,Weather View 32 v70,2013-01-22 10:15:00,
2013-01-22 05:20:00,22.1,7.6,29.97,NNE,29,2.0,14.0,53,0.00,,,0.00,Weather View 32 v70,2013-01-22 10:20:00,
2013-01-22 05:25:00,22.0,7.1,29.98,East,83,1.0,14.0,52,0.00,,,0.00,Weather View 32 v70,2013-01-22 10:25:00,
2013-01-22 05:30:00,21.9,7.8,29.98,NW,318,1.0,14.0,54,0.00,,,0.00,Weather View 32 v70,2013-01-22 10:30:00,
2013-01-22 05:35:00,21.8,7.3,29.98,SSW,205,5.0,14.0,53,0.00,,,0.00,Weather View 32 v70,2013-01-22 10:35:00,
2013-01-22 05:40:00,21.7,7.2,29.98,SSW,212,4.0,14.0,53,0.00,,,0.00,Weather View 32 v70,2013-01-22 10:40:00,
2013-01-22 05:45:00,21.7,7.2,29.99,West,270,2.0,14.0,53,0.00,,,0.00,Weather View 32 v70,2013-01-22 10:45:00,
2013-01-22 05:50:00,21.5,7.0,29.98,South,174,2.0,15.0,53,0.00,,,0.00,Weather View 32 v70,2013-01-22 10:50:00,
2013-01-22 05:55:00,21.4,7.3,29.98,South,191,9.0,15.0,54,0.00,,,0.00,Weather View 32 v70,2013-01-22 10:55:00,
2013-01-22 06:00:00,21.4,6.9,29.99,WSW,253,7.0,15.0,53,0.00,,,0.00,Weather View 32 v70,2013-01-22 11:00:00,
2013-01-22 06:05:00,21.4,7.3,29.98,WNW,294,2.0,15.0,54,0.00,,,0.00,Weather View 32 v70,2013-01-22 11:05:00,
2013-01-22 06:10:00,21.3,6.8,29.99,SSW,210,1.0,15.0,53,0.00,,,0.00,Weather View 32 v70,2013-01-22 11:10:00,
2013-01-22 06:15:00,21.3,7.2,30.00,NE,42,2.0,15.0,54,0.00,,,0.00,Weather View 32 v70,2013-01-22 11:15:00,
2013-01-22 06:20:00,21.2,6.7,30.00,SSW,212,3.0,15.0,53,0.00,,,0.00,Weather View 32 v70,2013-01-22 11:20:00,
2013-01-22 06:25:00,21.1,6.6,30.00,ESE,120,10.0,15.0,53,0.00,,,0.00,Weather View 32 v70,2013-01-22 11:25:00,
2013-01-22 06:30:00,21.1,7.1,30.00,NNW,334,4.0,15.0,54,0.00,,,0.00,Weather View 32 v70,2013-01-22 11:30:00,
2013-01-22 06:35:00,20.9,6.5,30.00,SW,228,1.0,15.0,53,0.00,,,0.00,Weather View 32 v70,2013-01-22 11:35:00,
2013-01-22 06:40:00,20.8,7.2,30.00,WSW,248,2.0,15.0,55,0.00,,,0.00,Weather View 32 v70,2013-01-22 11:40:00,
2013-01-22 06:45:00,20.7,6.7,30.00,NNW,328,2.0,15.0,54,0.00,,,0.00,Weather View 32 v70,2013-01-22 11:45:00,
2013-01-22 06:50:00,20.7,6.7,30.01,SE,127,0.0,14.0,54,0.00,,,0.00,Weather View 32 v70,2013-01-22 11:50:00,
2013-01-22 06:55:00,20.6,6.6,30.00,West,263,2.0,14.0,54,0.00,,,0.00,Weather View 32 v70,2013-01-22 11:55:00,
2013-01-22 07:01:00,20.6,7.4,30.00,NE,38,0.0,14.0,56,0.00,,,0.00,Weather View 32 v70,2013-01-22 12:01:00,
2013-01-22 07:06:00,20.5,6.5,30.01,SW,233,2.0,14.0,54,0.00,,,0.00,Weather View 32 v70,2013-01-22 12:06:00,
2013-01-22 07:11:00,20.5,6.5,30.01,SSE,148,2.0,14.0,54,0.00,,,0.00,Weather View 32 v70,2013-01-22 12:11:00,
2013-01-22 07:16:00,20.5,6.5,30.01,North,354,2.0,14.0,54,0.00,,,0.00,Weather View 32 v70,2013-01-22 12:16:00,
2013-01-22 07:21:00,20.5,6.9,30.01,NNE,29,3.0,14.0,55,0.00,,,0.00,Weather View 32 v70,2013-01-22 12:21:00,
2013-01-22 07:27:00,20.5,6.5,30.02,ESE,102,2.0,14.0,54,0.00,,,0.00,Weather View 32 v70,2013-01-22 12:27:00,
2013-01-22 07:32:00,20.4,6.4,30.01,SSW,196,2.0,18.0,54,0.00,,,0.00,Weather View 32 v70,2013-01-22 12:32:00,
2013-01-22 07:37:00,20.3,6.3,30.02,SW,235,5.0,18.0,54,0.00,,,0.00,Weather View 32 v70,2013-01-22 12:37:00,
2013-01-22 07:42:00,20.3,5.9,30.01,ENE,71,2.0,18.0,53,0.00,,,0.00,Weather View 32 v70,2013-01-22 12:42:00,
2013-01-22 07:47:00,20.4,6.0,30.01,WSW,243,3.0,18.0,53,0.00,,,0.00,Weather View 32 v70,2013-01-22 12:47:00,
2013-01-22 07:52:00,20.5,6.5,30.01,NE,35,3.0,18.0,54,0.00,,,0.00,Weather View 32 v70,2013-01-22 12:52:00,
2013-01-22 07:57:00,20.7,6.3,30.02,SW,220,3.0,18.0,53,0.00,,,0.00,Weather View 32 v70,2013-01-22 12:57:00,
2013-01-22 08:03:00,20.8,7.2,30.02,NE,55,0.0,18.0,55,0.00,,,0.00,Weather View 32 v70,2013-01-22 13:03:00,
2013-01-22 08:08:00,20.8,6.8,30.02,WSW,252,1.0,18.0,54,0.00,,,0.00,Weather View 32 v70,2013-01-22 13:08:00,
2013-01-22 08:13:00,20.8,6.4,30.02,SSE,154,2.0,18.0,53,0.00,,,0.00,Weather View 32 v70,2013-01-22 13:13:00,
2013-01-22 08:18:00,20.9,6.9,30.03,ENE,59,2.0,18.0,54,0.00,,,0.00,Weather View 32 v70,2013-01-22 13:18:00,
2013-01-22 08:23:00,20.9,6.9,30.03,SSW,192,5.0,18.0,54,0.00,,,0.00,Weather View 32 v70,2013-01-22 13:23:00,
2013-01-22 08:28:00,20.8,6.4,30.03,West,268,3.0,15.0,53,0.00,,,0.00,Weather View 32 v70,2013-01-22 13:28:00,
2013-01-22 08:33:00,20.7,6.3,30.03,NE,35,3.0,15.0,53,0.00,,,0.00,Weather View 32 v70,2013-01-22 13:33:00,
2013-01-22 08:38:00,20.7,6.3,30.04,ESE,103,3.0,15.0,53,0.00,,,0.00,Weather View 32 v70,2013-01-22 13:38:00,
2013-01-22 08:43:00,20.7,6.3,30.04,SW,234,2.0,15.0,53,0.00,,,0.00,Weather View 32 v70,2013-01-22 13:43:00,
2013-01-22 08:48:00,20.8,6.8,30.04,SSW,196,5.0,15.0,54,0.00,,,0.00,Weather View 32 v70,2013-01-22 13:48:00,
2013-01-22 08:53:00,20.7,6.3,30.03,WSW,258,9.0,17.0,53,0.00,,,0.00,Weather View 32 v70,2013-01-22 13:53:00,
2013-01-22 08:58:00,20.8,6.8,30.04,SW,219,2.0,17.0,54,0.00,,,0.00,Weather View 32 v70,2013-01-22 13:58:00,
2013-01-22 09:04:00,20.9,6.5,30.04,SW,222,1.0,17.0,53,0.00,,,0.00,Weather View 32 v70,2013-01-22 14:04:00,
2013-01-22 09:09:00,21.0,7.0,30.05,North,349,5.0,17.0,54,0.00,,,0.00,Weather View 32 v70,2013-01-22 14:09:00,
2013-01-22 09:14:00,21.1,7.1,30.05,ESE,117,3.0,17.0,54,0.00,,,0.00,Weather View 32 v70,2013-01-22 14:14:00,
2013-01-22 09:19:00,21.3,6.8,30.05,WNW,303,3.0,17.0,53,0.00,,,0.00,Weather View 32 v70,2013-01-22 14:19:00,
2013-01-22 09:24:00,21.5,7.4,30.05,WSW,253,4.0,17.0,54,0.00,,,0.00,Weather View 32 v70,2013-01-22 14:24:00,
2013-01-22 09:29:00,21.7,7.2,30.06,North,6,5.0,17.0,53,0.00,,,0.00,Weather View 32 v70,2013-01-22 14:29:00,
2013-01-22 09:34:00,21.9,7.0,30.06,SSW,210,3.0,17.0,52,0.00,,,0.00,Weather View 32 v70,2013-01-22 14:34:00,
2013-01-22 09:39:00,22.0,7.1,30.06,NE,40,3.0,17.0,52,0.00,,,0.00,Weather View 32 v70,2013-01-22 14:39:00,
2013-01-22 09:44:00,22.1,7.2,30.06,SE,131,2.0,17.0,52,0.00,,,0.00,Weather View 32 v70,2013-01-22 14:44:00,
2013-01-22 09:49:00,22.3,7.3,30.06,NNW,347,0.0,17.0,52,0.00,,,0.00,Weather View 32 v70,2013-01-22 14:49:00,
2013-01-22 09:54:00,22.5,7.5,30.06,SSW,211,1.0,16.0,52,0.00,,,0.00,Weather View 32 v70,2013-01-22 14:54:00,
2013-01-22 09:59:00,22.8,7.4,30.07,NE,34,4.0,16.0,51,0.00,,,0.00,Weather View 32 v70,2013-01-22 14:59:00,
2013-01-22 10:04:00,23.0,7.6,30.06,West,269,3.0,16.0,51,0.00,,,0.00,Weather View 32 v70,2013-01-22 15:04:00,
2013-01-22 10:09:00,23.4,7.0,30.07,NNE,12,4.0,16.0,49,0.00,,,0.00,Weather View 32 v70,2013-01-22 15:09:00,
2013-01-22 10:14:00,23.8,7.4,30.07,SSE,147,2.0,16.0,49,0.00,,,0.00,Weather View 32 v70,2013-01-22 15:14:00,
2013-01-22 10:19:00,24.1,7.2,30.07,NNE,25,3.0,16.0,48,0.00,,,0.00,Weather View 32 v70,2013-01-22 15:19:00,
2013-01-22 10:24:00,24.4,7.5,30.07,North,5,4.0,16.0,48,0.00,,,0.00,Weather View 32 v70,2013-01-22 15:24:00,
2013-01-22 10:29:00,24.6,7.2,30.08,SW,229,5.0,16.0,47,0.00,,,0.00,Weather View 32 v70,2013-01-22 15:29:00,
2013-01-22 10:34:00,24.8,6.9,30.09,SE,131,6.0,13.0,46,0.00,,,0.00,Weather View 32 v70,2013-01-22 15:34:00,
2013-01-22 10:39:00,24.9,6.6,30.09,ESE,104,2.0,13.0,45,0.00,,,0.00,Weather View 32 v70,2013-01-22 15:39:00,
2013-01-22 10:44:00,25.1,6.7,30.09,NW,323,2.0,14.0,45,0.00,,,0.00,Weather View 32 v70,2013-01-22 15:44:00,
2013-01-22 10:49:00,25.2,7.3,30.09,NE,42,1.0,14.0,46,0.00,,,0.00,Weather View 32 v70,2013-01-22 15:49:00,
2013-01-22 10:54:00,25.3,6.9,30.10,SW,215,7.0,14.0,45,0.00,,,0.00,Weather View 32 v70,2013-01-22 15:54:00,
2013-01-22 10:59:00,25.5,7.1,30.10,ENE,73,5.0,14.0,45,0.00,,,0.00,Weather View 32 v70,2013-01-22 15:59:00,
2013-01-22 11:04:00,25.5,6.6,30.10,NNE,33,2.0,14.0,44,0.00,,,0.00,Weather View 32 v70,2013-01-22 16:04:00,
2013-01-22 11:09:00,25.7,7.3,30.10,SW,221,4.0,14.0,45,0.00,,,0.00,Weather View 32 v70,2013-01-22 16:09:00,
2013-01-22 11:14:00,26.3,6.8,30.10,SSE,157,2.0,14.0,43,0.00,,,0.00,Weather View 32 v70,2013-01-22 16:14:00,
2013-01-22 11:19:00,26.2,6.7,30.10,NNE,17,6.0,14.0,43,0.00,,,0.00,Weather View 32 v70,2013-01-22 16:19:00,
2013-01-22 11:24:00,27.2,7.6,30.11,South,188,7.0,14.0,43,0.00,,,0.00,Weather View 32 v70,2013-01-22 16:24:00,
2013-01-22 11:29:00,27.2,7.1,30.10,SW,214,2.0,14.0,42,0.00,,,0.00,Weather View 32 v70,2013-01-22 16:29:00,
2013-01-22 11:34:00,27.7,7.1,30.10,East,93,2.0,14.0,41,0.00,,,0.00,Weather View 32 v70,2013-01-22 16:34:00,
2013-01-22 11:39:00,27.3,6.1,30.10,WSW,244,0.0,19.0,40,0.00,,,0.00,Weather View 32 v70,2013-01-22 16:39:00,
2013-01-22 11:44:00,27.4,5.7,30.09,NW,309,2.0,19.0,39,0.00,,,0.00,Weather View 32 v70,2013-01-22 16:44:00,
2013-01-22 11:49:00,27.7,5.4,30.10,NE,38,3.0,19.0,38,0.00,,,0.00,Weather View 32 v70,2013-01-22 16:49:00,
2013-01-22 11:54:00,28.0,5.1,30.09,ESE,118,2.0,19.0,37,0.00,,,0.00,Weather View 32 v70,2013-01-22 16:54:00,
2013-01-22 11:59:00,28.4,5.4,30.09,NNE,15,5.0,19.0,37,0.00,,,0.00,Weather View 32 v70,2013-01-22 16:59:00,
2013-01-22 12:04:00,28.3,4.7,30.09,South,171,8.0,19.0,36,0.00,,,0.00,Weather View 32 v70,2013-01-22 17:04:00,
2013-01-22 12:09:00,28.3,4.1,30.09,East,93,5.0,19.0,35,0.00,,,0.00,Weather View 32 v70,2013-01-22 17:09:00,
2013-01-22 12:14:00,28.6,4.4,30.08,SE,126,3.0,19.0,35,0.00,,,0.00,Weather View 32 v70,2013-01-22 17:14:00,
2013-01-22 12:19:00,28.7,3.2,30.08,East,98,2.0,19.0,33,0.00,,,0.00,Weather View 32 v70,2013-01-22 17:19:00,
2013-01-22 12:24:00,28.6,3.1,30.08,NW,320,5.0,19.0,33,0.00,,,0.00,Weather View 32 v70,2013-01-22 17:24:00,
2013-01-22 12:29:00,28.9,3.4,30.09,WSW,247,1.0,19.0,33,0.00,,,0.00,Weather View 32 v70,2013-01-22 17:29:00,
2013-01-22 12:34:00,29.3,3.7,30.08,ESE,119,0.0,19.0,33,0.00,,,0.00,Weather View 32 v70,2013-01-22 17:34:00,
2013-01-22 12:39:00,29.9,4.3,30.09,WSW,254,2.0,13.0,33,0.00,,,0.00,Weather View 32 v70,2013-01-22 17:39:00,
2013-01-22 12:44:00,30.0,3.7,30.09,SSW,196,2.0,13.0,32,0.00,,,0.00,Weather View 32 v70,2013-01-22 17:44:00,
2013-01-22 12:49:00,29.4,2.5,30.08,SW,233,6.0,13.0,31,0.00,,,0.00,Weather View 32 v70,2013-01-22 17:49:00,
2013-01-22 12:54:00,29.5,2.6,30.08,SSE,164,1.0,13.0,31,0.00,,,0.00,Weather View 32 v70,2013-01-22 17:54:00,
2013-01-22 12:59:00,30.0,3.0,30.07,SW,224,5.0,13.0,31,0.00,,,0.00,Weather View 32 v70,2013-01-22 17:59:00,
2013-01-22 13:04:00,29.8,2.1,30.07,ENE,69,3.0,13.0,30,0.00,,,0.00,Weather View 32 v70,2013-01-22 18:04:00,
2013-01-22 13:09:00,29.8,2.8,30.07,NNE,29,4.0,13.0,31,0.00,,,0.00,Weather View 32 v70,2013-01-22 18:09:00,
2013-01-22 13:14:00,30.6,3.5,30.07,NE,49,5.0,13.0,31,0.00,,,0.00,Weather View 32 v70,2013-01-22 18:14:00,
2013-01-22 13:19:00,31.3,4.8,30.07,ENE,60,2.0,13.0,32,0.00,,,0.00,Weather View 32 v70,2013-01-22 18:19:00,
2013-01-22 13:24:00,31.4,3.5,30.07,East,98,2.0,13.0,30,0.00,,,0.00,Weather View 32 v70,2013-01-22 18:24:00,
2013-01-22 13:29:00,31.6,4.4,30.06,South,179,2.0,14.0,31,0.00,,,0.00,Weather View 32 v70,2013-01-22 18:29:00,
2013-01-22 13:34:00,31.6,4.4,30.06,SE,137,5.0,14.0,31,0.00,,,0.00,Weather View 32 v70,2013-01-22 18:34:00,
2013-01-22 13:39:00,32.1,4.1,30.06,East,95,3.0,14.0,30,0.00,,,0.00,Weather View 32 v70,2013-01-22 18:39:00,
2013-01-22 13:44:00,32.6,4.6,30.06,ESE,123,2.0,14.0,30,0.00,,,0.00,Weather View 32 v70,2013-01-22 18:44:00,
2013-01-22 13:50:00,32.8,4.7,30.06,SW,219,1.0,14.0,30,0.00,,,0.00,Weather View 32 v70,2013-01-22 18:50:00,
2013-01-22 13:55:00,32.7,3.9,30.05,NNE,24,3.0,14.0,29,0.00,,,0.00,Weather View 32 v70,2013-01-22 18:55:00,
2013-01-22 14:00:00,33.3,4.4,30.06,NE,48,1.0,14.0,29,0.00,,,0.00,Weather View 32 v70,2013-01-22 19:00:00,
2013-01-22 14:05:00,33.7,5.5,30.06,North,349,2.0,14.0,30,0.00,,,0.00,Weather View 32 v70,2013-01-22 19:05:00,
2013-01-22 14:10:00,33.9,5.7,30.06,SSW,201,4.0,14.0,30,0.00,,,0.00,Weather View 32 v70,2013-01-22 19:10:00,
2013-01-22 14:15:00,33.9,5.7,30.05,NNE,12,8.0,14.0,30,0.00,,,0.00,Weather View 32 v70,2013-01-22 19:15:00,
2013-01-22 14:20:00,33.5,5.4,30.06,East,79,4.0,14.0,30,0.00,,,0.00,Weather View 32 v70,2013-01-22 19:20:00,
2013-01-22 14:25:00,34.2,6.7,30.06,South,169,0.0,14.0,31,0.00,,,0.00,Weather View 32 v70,2013-01-22 19:25:00,
2013-01-22 14:30:00,34.7,7.1,30.06,ENE,60,4.0,10.0,31,0.00,,,0.00,Weather View 32 v70,2013-01-22 19:30:00,
2013-01-22 14:35:00,34.5,6.2,30.06,SE,136,3.0,10.0,30,0.00,,,0.00,Weather View 32 v70,2013-01-22 19:35:00,
2013-01-22 14:40:00,34.5,6.9,30.05,NNE,20,3.0,11.0,31,0.00,,,0.00,Weather View 32 v70,2013-01-22 19:40:00,
2013-01-22 14:45:00,34.8,7.9,30.05,NNE,20,2.0,11.0,32,0.00,,,0.00,Weather View 32 v70,2013-01-22 19:45:00,
2013-01-22 14:50:00,34.4,7.6,30.04,ENE,67,4.0,11.0,32,0.00,,,0.00,Weather View 32 v70,2013-01-22 19:50:00,
2013-01-22 14:55:00,34.8,8.6,30.04,NNE,13,4.0,11.0,33,0.00,,,0.00,Weather View 32 v70,2013-01-22 19:55:00,
2013-01-22 15:00:00,35.6,9.3,30.05,NE,48,0.0,11.0,33,0.00,,,0.00,Weather View 32 v70,2013-01-22 20:00:00,
2013-01-22 15:05:00,36.4,10.0,30.05,SE,127,0.0,11.0,33,0.00,,,0.00,Weather View 32 v70,2013-01-22 20:05:00,
2013-01-22 15:10:00,35.3,9.0,30.04,East,99,2.0,15.0,33,0.00,,,0.00,Weather View 32 v70,2013-01-22 20:10:00,
2013-01-22 15:15:00,35.5,9.2,30.05,NE,36,2.0,15.0,33,0.00,,,0.00,Weather View 32 v70,2013-01-22 20:15:00,
2013-01-22 15:20:00,35.9,10.2,30.05,NNE,17,1.0,15.0,34,0.00,,,0.00,Weather View 32 v70,2013-01-22 20:20:00,
2013-01-22 15:25:00,36.6,10.2,30.05,West,263,3.0,15.0,33,0.00,,,0.00,Weather View 32 v70,2013-01-22 20:25:00,
2013-01-22 15:30:00,36.4,10.0,30.05,NE,55,2.0,15.0,33,0.00,,,0.00,Weather View 32 v70,2013-01-22 20:30:00,
2013-01-22 15:35:00,37.1,11.3,30.05,NNE,31,3.0,15.0,34,0.00,,,0.00,Weather View 32 v70,2013-01-22 20:35:00,
2013-01-22 15:40:00,36.6,10.2,30.05,NNW,338,4.0,15.0,33,0.00,,,0.00,Weather View 32 v70,2013-01-22 20:40:00,
2013-01-22 15:45:00,36.8,11.0,30.05,SSW,193,2.0,15.0,34,0.00,,,0.00,Weather View 32 v70,2013-01-22 20:45:00,
2013-01-22 15:50:00,37.2,11.4,30.05,NNW,346,2.0,15.0,34,0.00,,,0.00,Weather View 32 v70,2013-01-22 20:50:00,
2013-01-22 15:55:00,36.7,10.9,30.06,NNE,16,2.0,15.0,34,0.00,,,0.00,Weather View 32 v70,2013-01-22 20:55:00,
2013-01-22 16:00:00,37.1,11.9,30.05,SW,221,3.0,15.0,35,0.00,,,0.00,Weather View 32 v70,2013-01-22 21:00:00,
2013-01-22 16:05:00,37.7,11.8,30.06,NE,41,0.0,15.0,34,0.00,,,0.00,Weather View 32 v70,2013-01-22 21:05:00,
2013-01-22 16:10:00,37.3,12.1,30.06,SSE,156,8.0,13.0,35,0.00,,,0.00,Weather View 32 v70,2013-01-22 21:10:00,
2013-01-22 16:15:00,36.9,11.8,30.06,ENE,63,2.0,14.0,35,0.00,,,0.00,Weather View 32 v70,2013-01-22 21:15:00,
2013-01-22 16:20:00,36.9,11.8,30.07,SSE,151,7.0,14.0,35,0.00,,,0.00,Weather View 32 v70,2013-01-22 21:20:00,
2013-01-22 16:25:00,36.6,11.5,30.06,West,263,0.0,14.0,35,0.00,,,0.00,Weather View 32 v70,2013-01-22 21:25:00,
2013-01-22 16:30:00,36.6,11.5,30.07,NNE,17,0.0,14.0,35,0.00,,,0.00,Weather View 32 v70,2013-01-22 21:30:00,
2013-01-22 16:31:00,36.6,12.1,30.07,ENE,71,0.0,14.0,36,0.00,,,0.00,Weather View 32 v70,2013-01-22 21:31:00,
2013-01-22 16:36:00,36.5,12.1,30.07,ENE,77,0.0,14.0,36,0.00,,,0.00,Weather View 32 v70,2013-01-22 21:36:00,
2013-01-22 16:41:00,36.4,12.0,30.07,NNE,32,0.0,14.0,36,0.00,,,0.00,Weather View 32 v70,2013-01-22 21:41:00,
2013-01-22 16:46:00,36.1,11.7,30.08,East,96,2.0,14.0,36,0.00,,,0.00,Weather View 32 v70,2013-01-22 21:46:00,
2013-01-22 16:51:00,36.0,11.6,30.07,NNE,25,2.0,14.0,36,0.00,,,0.00,Weather View 32 v70,2013-01-22 21:51:00,
2013-01-22 16:56:00,35.9,12.7,30.08,East,99,5.0,14.0,38,0.00,,,0.00,Weather View 32 v70,2013-01-22 21:56:00,
2013-01-22 17:01:00,35.4,12.3,30.08,SW,232,4.0,17.0,38,0.00,,,0.00,Weather View 32 v70,2013-01-22 22:01:00,
2013-01-22 17:06:00,35.1,12.6,30.08,North,351,4.0,17.0,39,0.00,,,0.00,Weather View 32 v70,2013-01-22 22:06:00,
2013-01-22 17:11:00,35.1,12.0,30.07,North,356,0.0,17.0,38,0.00,,,0.00,Weather View 32 v70,2013-01-22 22:11:00,
2013-01-22 17:16:00,34.8,12.3,30.08,SSE,168,2.0,17.0,39,0.00,,,0.00,Weather View 32 v70,2013-01-22 22:16:00,
2013-01-22 17:21:00,34.4,12.0,30.08,South,184,2.0,17.0,39,0.00,,,0.00,Weather View 32 v70,2013-01-22 22:21:00,
2013-01-22 17:26:00,34.1,12.8,30.08,SE,135,0.0,17.0,41,0.00,,,0.00,Weather View 32 v70,2013-01-22 22:26:00,
2013-01-22 17:31:00,33.6,11.8,30.08,East,80,0.0,17.0,40,0.00,,,0.00,Weather View 32 v70,2013-01-22 22:31:00,
2013-01-22 17:36:00,33.4,12.2,30.08,SSW,196,0.0,17.0,41,0.00,,,0.00,Weather View 32 v70,2013-01-22 22:36:00,
2013-01-22 17:41:00,32.9,12.3,30.08,NE,53,1.0,17.0,42,0.00,,,0.00,Weather View 32 v70,2013-01-22 22:41:00,
2013-01-22 17:47:00,32.4,10.7,30.08,North,9,0.0,17.0,40,0.00,,,0.00,Weather View 32 v70,2013-01-22 22:47:00,
2013-01-22 17:52:00,32.1,11.0,30.08,WSW,242,0.0,17.0,41,0.00,,,0.00,Weather View 32 v70,2013-01-22 22:52:00,
2013-01-22 17:57:00,31.7,10.1,30.08,ESE,104,2.0,17.0,40,0.00,,,0.00,Weather View 32 v70,2013-01-22 22:57:00,
2013-01-22 18:02:00,31.4,9.8,30.08,SW,228,0.0,11.0,40,0.00,,,0.00,Weather View 32 v70,2013-01-22 23:02:00,
2013-01-22 18:07:00,31.1,10.1,30.08,South,170,0.0,10.0,41,0.00,,,0.00,Weather View 32 v70,2013-01-22 23:07:00,
2013-01-22 18:12:00,30.8,10.4,30.08,SSW,207,0.0,10.0,42,0.00,,,0.00,Weather View 32 v70,2013-01-22 23:12:00,
2013-01-22 18:17:00,30.5,10.6,30.08,East,101,0.0,10.0,43,0.00,,,0.00,Weather View 32 v70,2013-01-22 23:17:00,
2013-01-22 18:23:00,30.1,10.3,30.08,WSW,239,4.0,10.0,43,0.00,,,0.00,Weather View 32 v70,2013-01-22 23:23:00,
2013-01-22 18:28:00,30.1,10.3,30.08,ESE,121,0.0,10.0,43,0.00,,,0.00,Weather View 32 v70,2013-01-22 23:28:00,
2013-01-22 18:33:00,29.8,11.5,30.09,North,355,0.0,9.0,46,0.00,,,0.00,Weather View 32 v70,2013-01-22 23:33:00,
2013-01-22 18:38:00,29.6,9.8,30.09,SSE,167,0.0,9.0,43,0.00,,,0.00,Weather View 32 v70,2013-01-22 23:38:00,
2013-01-22 18:43:00,29.6,9.8,30.08,SSE,168,0.0,9.0,43,0.00,,,0.00,Weather View 32 v70,2013-01-22 23:43:00,
2013-01-22 18:48:00,29.6,10.3,30.09,SSW,195,2.0,9.0,44,0.00,,,0.00,Weather View 32 v70,2013-01-22 23:48:00,
2013-01-22 18:53:00,29.7,10.4,30.09,South,170,0.0,9.0,44,0.00,,,0.00,Weather View 32 v70,2013-01-22 23:53:00,
2013-01-22 18:58:00,29.6,10.3,30.09,WSW,245,3.0,9.0,44,0.00,,,0.00,Weather View 32 v70,2013-01-22 23:58:00,
2013-01-22 19:03:00,29.7,10.9,30.09,West,271,1.0,9.0,45,0.00,,,0.00,Weather View 32 v70,2013-01-23 00:03:00,
2013-01-22 19:08:00,29.7,10.4,30.09,SE,141,3.0,9.0,44,0.00,,,0.00,Weather View 32 v70,2013-01-23 00:08:00,
2013-01-22 19:13:00,29.6,10.9,30.08,SSW,210,2.0,9.0,45,0.00,,,0.00,Weather View 32 v70,2013-01-23 00:13:00,
2013-01-22 19:18:00,29.6,10.9,30.09,SSE,159,1.0,9.0,45,0.00,,,0.00,Weather View 32 v70,2013-01-23 00:18:00,
2013-01-22 19:23:00,29.5,10.8,30.09,SE,145,0.0,9.0,45,0.00,,,0.00,Weather View 32 v70,2013-01-23 00:23:00,
2013-01-22 19:28:00,29.3,10.6,30.09,SSW,209,1.0,9.0,45,0.00,,,0.00,Weather View 32 v70,2013-01-23 00:28:00,
2013-01-22 19:33:00,29.1,11.4,30.09,SW,229,0.0,9.0,47,0.00,,,0.00,Weather View 32 v70,2013-01-23 00:33:00,
2013-01-22 19:38:00,28.9,10.7,30.10,WNW,296,0.0,10.0,46,0.00,,,0.00,Weather View 32 v70,2013-01-23 00:38:00,
2013-01-22 19:43:00,28.9,10.7,30.10,SW,224,3.0,10.0,46,0.00,,,0.00,Weather View 32 v70,2013-01-23 00:43:00,
2013-01-22 19:48:00,28.8,10.1,30.10,SSW,208,2.0,10.0,45,0.00,,,0.00,Weather View 32 v70,2013-01-23 00:48:00,
2013-01-22 19:53:00,28.7,10.0,30.10,SSW,210,2.0,10.0,45,0.00,,,0.00,Weather View 32 v70,2013-01-23 00:53:00,
2013-01-22 19:58:00,28.5,9.3,30.10,SW,225,2.0,10.0,44,0.00,,,0.00,Weather View 32 v70,2013-01-23 00:58:00,
2013-01-22 20:04:00,28.4,9.8,30.11,SSE,158,2.0,10.0,45,0.00,,,0.00,Weather View 32 v70,2013-01-23 01:04:00,
2013-01-22 20:09:00,28.4,9.8,30.11,NE,41,2.0,10.0,45,0.00,,,0.00,Weather View 32 v70,2013-01-23 01:09:00,
2013-01-22 20:14:00,28.0,10.4,30.12,NE,49,6.0,10.0,47,0.00,,,0.00,Weather View 32 v70,2013-01-23 01:14:00,
2013-01-22 20:19:00,27.8,9.7,30.12,NE,41,0.0,10.0,46,0.00,,,0.00,Weather View 32 v70,2013-01-23 01:19:00,
2013-01-22 20:24:00,27.6,10.0,30.12,ENE,58,0.0,10.0,47,0.00,,,0.00,Weather View 32 v70,2013-01-23 01:24:00,
2013-01-22 20:29:00,27.4,9.3,30.12,NE,34,0.0,10.0,46,0.00,,,0.00,Weather View 32 v70,2013-01-23 01:29:00,
2013-01-22 20:34:00,27.3,9.7,30.11,NNE,14,2.0,10.0,47,0.00,,,0.00,Weather View 32 v70,2013-01-23 01:34:00,
2013-01-22 20:39:00,27.2,9.6,30.11,South,169,2.0,10.0,47,0.00,,,0.00,Weather View 32 v70,2013-01-23 01:39:00,
2013-01-22 20:44:00,27.2,9.6,30.11,NE,36,3.0,10.0,47,0.00,,,0.00,Weather View 32 v70,2013-01-23 01:44:00,
2013-01-22 20:49:00,27.1,9.5,30.11,NNE,19,6.0,10.0,47,0.00,,,0.00,Weather View 32 v70,2013-01-23 01:49:00,
2013-01-22 20:54:00,27.0,9.0,30.10,NNW,341,3.0,10.0,46,0.00,,,0.00,Weather View 32 v70,2013-01-23 01:54:00,
2013-01-22 20:59:00,26.9,8.9,30.10,NNE,33,0.0,9.0,46,0.00,,,0.00,Weather View 32 v70,2013-01-23 01:59:00,
2013-01-22 21:04:00,26.9,9.3,30.10,NNW,348,3.0,9.0,47,0.00,,,0.00,Weather View 32 v70,2013-01-23 02:04:00,
2013-01-22 21:09:00,26.9,9.3,30.10,North,352,0.0,9.0,47,0.00,,,0.00,Weather View 32 v70,2013-01-23 02:09:00,
2013-01-22 21:14:00,26.9,9.3,30.10,NE,52,2.0,9.0,47,0.00,,,0.00,Weather View 32 v70,2013-01-23 02:14:00,
2013-01-22 21:19:00,26.7,8.7,30.11,NNW,341,8.0,9.0,46,0.00,,,0.00,Weather View 32 v70,2013-01-23 02:19:00,
2013-01-22 21:24:00,26.6,8.6,30.11,ENE,63,2.0,10.0,46,0.00,,,0.00,Weather View 32 v70,2013-01-23 02:24:00,
2013-01-22 21:29:00,26.6,8.6,30.10,SSE,154,3.0,10.0,46,0.00,,,0.00,Weather View 32 v70,2013-01-23 02:29:00,
2013-01-22 21:34:00,26.4,8.4,30.11,NNE,20,5.0,10.0,46,0.00,,,0.00,Weather View 32 v70,2013-01-23 02:34:00,
2013-01-22 21:39:00,26.3,8.8,30.11,NE,34,4.0,10.0,47,0.00,,,0.00,Weather View 32 v70,2013-01-23 02:39:00,
2013-01-22 21:44:00,26.3,8.8,30.11,NE,41,3.0,10.0,47,0.00,,,0.00,Weather View 32 v70,2013-01-23 02:44:00,
2013-01-22 21:49:00,26.3,8.3,30.11,North,349,0.0,10.0,46,0.00,,,0.00,Weather View 32 v70,2013-01-23 02:49:00,
2013-01-22 21:54:00,26.2,8.2,30.11,NNE,33,2.0,10.0,46,0.00,,,0.00,Weather View 32 v70,2013-01-23 02:54:00,
2013-01-22 21:59:00,26.2,8.7,30.10,NNE,24,2.0,10.0,47,0.00,,,0.00,Weather View 32 v70,2013-01-23 02:59:00,
2013-01-22 22:04:00,26.1,8.6,30.10,North,11,4.0,10.0,47,0.00,,,0.00,Weather View 32 v70,2013-01-23 03:04:00,
2013-01-22 22:09:00,26.1,9.1,30.10,North,356,3.0,10.0,48,0.00,,,0.00,Weather View 32 v70,2013-01-23 03:09:00,
2013-01-22 22:14:00,26.1,9.1,30.10,East,81,6.0,10.0,48,0.00,,,0.00,Weather View 32 v70,2013-01-23 03:14:00,
2013-01-22 22:19:00,26.3,9.7,30.10,NE,50,2.0,10.0,49,0.00,,,0.00,Weather View 32 v70,2013-01-23 03:19:00,
2013-01-22 22:24:00,26.3,9.7,30.10,NW,325,3.0,8.0,49,0.00,,,0.00,Weather View 32 v70,2013-01-23 03:24:00,
2013-01-22 22:29:00,26.2,9.2,30.10,North,7,1.0,8.0,48,0.00,,,0.00,Weather View 32 v70,2013-01-23 03:29:00,
2013-01-22 22:34:00,26.3,10.2,30.10,SW,234,0.0,8.0,50,0.00,,,0.00,Weather View 32 v70,2013-01-23 03:34:00,
2013-01-22 22:39:00,26.3,9.7,30.10,North,7,5.0,8.0,49,0.00,,,0.00,Weather View 32 v70,2013-01-23 03:39:00,
2013-01-22 22:44:00,26.2,9.6,30.10,East,79,1.0,8.0,49,0.00,,,0.00,Weather View 32 v70,2013-01-23 03:44:00,
2013-01-22 22:49:00,26.1,10.0,30.11,NE,35,3.0,8.0,50,0.00,,,0.00,Weather View 32 v70,2013-01-23 03:49:00,
2013-01-22 22:54:00,26.0,9.4,30.11,NW,322,4.0,8.0,49,0.00,,,0.00,Weather View 32 v70,2013-01-23 03:54:00,
2013-01-22 22:59:00,26.1,10.4,30.10,NE,52,1.0,8.0,51,0.00,,,0.00,Weather View 32 v70,2013-01-23 03:59:00,
2013-01-22 23:05:00,26.0,9.4,30.10,NNE,16,3.0,8.0,49,0.00,,,0.00,Weather View 32 v70,2013-01-23 04:05:00,
2013-01-22 23:10:00,25.9,9.4,30.10,NW,312,1.0,8.0,49,0.00,,,0.00,Weather View 32 v70,2013-01-23 04:10:00,
2013-01-22 23:15:00,26.0,9.9,30.11,SSE,148,3.0,8.0,50,0.00,,,0.00,Weather View 32 v70,2013-01-23 04:15:00,
2013-01-22 23:20:00,26.1,9.5,30.10,NNW,338,2.0,7.0,49,0.00,,,0.00,Weather View 32 v70,2013-01-23 04:20:00,
2013-01-22 23:25:00,26.3,10.2,30.10,North,356,4.0,7.0,50,0.00,,,0.00,Weather View 32 v70,2013-01-23 04:25:00,
2013-01-22 23:30:00,26.3,10.6,30.10,NNE,17,4.0,7.0,51,0.00,,,0.00,Weather View 32 v70,2013-01-23 04:30:00,
2013-01-22 23:35:00,26.3,10.2,30.10,East,82,2.0,9.0,50,0.00,,,0.00,Weather View 32 v70,2013-01-23 04:35:00,
2013-01-22 23:40:00,26.4,10.7,30.10,NNE,12,5.0,9.0,51,0.00,,,0.00,Weather View 32 v70,2013-01-23 04:40:00,
2013-01-22 23:46:00,26.5,10.8,30.10,East,89,1.0,9.0,51,0.00,,,0.00,Weather View 32 v70,2013-01-23 04:46:00,
2013-01-22 23:52:00,26.5,10.8,30.10,NNE,26,0.0,9.0,51,0.00,,,0.00,Weather View 32 v70,2013-01-23 04:52:00,
2013-01-22 23:57:00,26.5,11.2,30.10,NNE,26,4.0,9.0,52,0.00,,,0.00,Weather View 32 v70,2013-01-23 04:57:00,